• En España
  • Lista de países
  • Para 7 días
  • Temperatura del agua
  • Mapa Satelital
  • El tiempo en el mapa
  • Informadores
  • user-avatar
    Iniciar sesión

    Tiempo cada hora Saurimo

    Hoy, 18 Octubre, Miércoles

    Tiempo Temperatura Precipitaciones Viento Presión Humedad
    00:00 +23°C° 0 mm 1 mps 669 mmHg 55%
    01:00 +23°C° 0 mm 1 mps 669 mmHg 58%
    02:00 +23°C° 0 mm 1 mps 669 mmHg 61%
    03:00 +22°C° 0 mm 1 mps 669 mmHg 63%
    04:00 +22°C° 0 mm 1 mps 669 mmHg 66%
    05:00 +23°C° 0 mm 2 mps 670 mmHg 64%
    06:00 +25°C° 0 mm 2 mps 671 mmHg 61%
    07:00 +26°C° 0 mm 3 mps 671 mmHg 58%
    08:00 +29°C° 0 mm 3 mps 672 mmHg 52%
    09:00 +31°C° 0 mm 3 mps 672 mmHg 45%
    10:00 +34°C° 0 mm 3 mps 672 mmHg 39%
    11:00 +36°C° 0 mm 2 mps 672 mmHg 33%
    12:00 +39°C° 0 mm 1 mps 672 mmHg 28%
    13:00 +41°C° 0 mm 1 mps 671 mmHg 22%
    14:00 +39°C° 0 mm 1 mps 671 mmHg 24%
    15:00 +37°C° 0 mm 1 mps 670 mmHg 25%
    16:00 +35°C° 0 mm 1 mps 669 mmHg 27%
    17:00 +33°C° 0 mm 1 mps 669 mmHg 32%
    18:00 +30°C° 0 mm 1 mps 669 mmHg 37%
    19:00 +28°C° 0 mm 1 mps 669 mmHg 42%
    20:00 +27°C° 0 mm 1 mps 669 mmHg 46%
    21:00 +27°C° 0 mm 1 mps 670 mmHg 50%
    22:00 +26°C° 0 mm 1 mps 670 mmHg 54%
    23:00 +25°C° 0 mm 1 mps 670 mmHg 56%

    Mañana, 19 Octubre, Jueves

    Tiempo Temperatura Precipitaciones Viento Presión Humedad
    00:00 +25°C° 0 mm 1 mps 669 mmHg 58%
    01:00 +25°C° 0 mm 1 mps 669 mmHg 60%
    02:00 +24°C° 0 mm 2 mps 669 mmHg 63%
    03:00 +24°C° 0 mm 2 mps 669 mmHg 67%
    04:00 +23°C° 0 mm 2 mps 669 mmHg 70%
    05:00 +24°C° 0 mm 3 mps 669 mmHg 68%
    06:00 +25°C° 0 mm 3 mps 670 mmHg 66%
    07:00 +26°C° 0 mm 3 mps 670 mmHg 64%
    08:00 +29°C° 0 mm 3 mps 671 mmHg 55%
    09:00 +33°C° 0 mm 3 mps 671 mmHg 46%
    10:00 +36°C° 0 mm 3 mps 672 mmHg 37%
    11:00 +39°C° 0 mm 2 mps 672 mmHg 32%
    12:00 +41°C° 0 mm 1 mps 671 mmHg 26%
    13:00 +41°C° 0 mm 0 mps 671 mmHg 21%
    14:00 +39°C° 0 mm 0 mps 670 mmHg 23%
    15:00 +39°C° 0 mm 1 mps 670 mmHg 26%
    16:00 +36°C° 0 mm 1 mps 669 mmHg 29%
    17:00 +34°C° 0,1 mm 2 mps 669 mmHg 35%
    18:00 +31°C° 0,1 mm 2 mps 669 mmHg 40%
    19:00 +29°C° 0,1 mm 2 mps 669 mmHg 46%
    20:00 +28°C° 0,7 mm 2 mps 669 mmHg 55%
    21:00 +26°C° 0,7 mm 2 mps 670 mmHg 65%
    22:00 +25°C° 0,7 mm 2 mps 670 mmHg 74%
    23:00 +24°C° 1 mm 2 mps 670 mmHg 78%

    Pasado mañana, 20 Octubre, Viernes

    Tiempo Temperatura Precipitaciones Viento Presión Humedad
    00:00 +23°C° 1 mm 2 mps 670 mmHg 82%
    01:00 +23°C° 1 mm 2 mps 670 mmHg 86%
    02:00 +23°C° 0,7 mm 2 mps 669 mmHg 87%
    03:00 +21°C° 0,7 mm 2 mps 669 mmHg 89%
    04:00 +22°C° 0,7 mm 1 mps 669 mmHg 91%
    05:00 +23°C° 0 mm 2 mps 670 mmHg 87%
    06:00 +23°C° 0 mm 2 mps 670 mmHg 84%
    07:00 +24°C° 0 mm 3 mps 671 mmHg 81%
    08:00 +26°C° 0 mm 3 mps 671 mmHg 72%
    09:00 +28°C° 0 mm 3 mps 672 mmHg 62%
    10:00 +30°C° 0 mm 3 mps 672 mmHg 53%
    11:00 +32°C° 0 mm 2 mps 672 mmHg 49%
    12:00 +34°C° 0 mm 2 mps 671 mmHg 44%
    13:00 +35°C° 0 mm 2 mps 670 mmHg 39%
    14:00 +35°C° 0 mm 2 mps 670 mmHg 40%
    15:00 +34°C° 0 mm 2 mps 670 mmHg 41%
    16:00 +34°C° 0 mm 2 mps 669 mmHg 42%
    17:00 +31°C° 0,2 mm 2 mps 670 mmHg 49%
    18:00 +29°C° 0,2 mm 1 mps 670 mmHg 55%
    19:00 +27°C° 0,2 mm 1 mps 670 mmHg 62%
    20:00 +26°C° 0,6 mm 1 mps 671 mmHg 71%
    21:00 +24°C° 0,6 mm 1 mps 671 mmHg 79%
    22:00 +23°C° 0,6 mm 1 mps 671 mmHg 87%
    23:00 +23°C° 0,8 mm 1 mps 671 mmHg 89%

    21 Octubre, Sábado

    Tiempo Temperatura Precipitaciones Viento Presión Humedad
    00:00 +23°C° 0,8 mm 1 mps 671 mmHg 91%
    01:00 +22°C° 0,8 mm 1 mps 670 mmHg 92%
    02:00 +22°C° 0,3 mm 1 mps 670 mmHg 92%
    03:00 +20°C° 0,3 mm 0 mps 670 mmHg 92%
    04:00 +20°C° 0,3 mm 0 mps 669 mmHg 92%
    05:00 +23°C° 0 mm 1 mps 670 mmHg 90%
    06:00 +24°C° 0 mm 1 mps 670 mmHg 87%
    07:00 +24°C° 0 mm 1 mps 671 mmHg 85%
    08:00 +27°C° 0 mm 1 mps 671 mmHg 72%
    09:00 +30°C° 0 mm 1 mps 672 mmHg 58%
    10:00 +34°C° 0 mm 2 mps 672 mmHg 44%
    11:00 +34°C° 0 mm 1 mps 672 mmHg 40%
    12:00 +35°C° 0 mm 1 mps 671 mmHg 37%
    13:00 +36°C° 0 mm 1 mps 671 mmHg 33%
    14:00 +35°C° 0 mm 1 mps 670 mmHg 34%
    15:00 +35°C° 0 mm 2 mps 670 mmHg 36%
    16:00 +35°C° 0 mm 2 mps 670 mmHg 38%
    17:00 +31°C° 0 mm 2 mps 670 mmHg 44%
    18:00 +29°C° 0 mm 1 mps 670 mmHg 50%
    19:00 +27°C° 0 mm 1 mps 670 mmHg 56%
    20:00 +27°C° 0 mm 1 mps 670 mmHg 59%
    21:00 +26°C° 0 mm 1 mps 670 mmHg 62%
    22:00 +25°C° 0 mm 1 mps 670 mmHg 66%
    23:00 +24°C° 0,1 mm 1 mps 670 mmHg 69%

    22 Octubre, Domingo

    Tiempo Temperatura Precipitaciones Viento Presión Humedad
    00:00 +24°C° 0,1 mm 1 mps 670 mmHg 73%
    01:00 +23°C° 0,1 mm 1 mps 669 mmHg 77%
    02:00 +23°C° 2,4 mm 1 mps 670 mmHg 83%
    03:00 +21°C° 2,4 mm 2 mps 670 mmHg 88%
    04:00 +20°C° 2,4 mm 2 mps 670 mmHg 94%
    05:00 +21°C° 3 mm 2 mps 670 mmHg 93%
    06:00 +21°C° 3 mm 2 mps 671 mmHg 91%
    07:00 +21°C° 3 mm 2 mps 672 mmHg 90%
    08:00 +25°C° 0 mm 2 mps 672 mmHg 78%
    09:00 +28°C° 0 mm 2 mps 672 mmHg 65%
    10:00 +30°C° 0 mm 1 mps 673 mmHg 53%
    11:00 +32°C° 0 mm 1 mps 672 mmHg 47%
    12:00 +34°C° 0 mm 1 mps 672 mmHg 42%
    13:00 +36°C° 0 mm 1 mps 672 mmHg 36%
    14:00 +35°C° 0 mm 1 mps 671 mmHg 39%
    15:00 +34°C° 0 mm 1 mps 671 mmHg 42%
    16:00 +32°C° 0 mm 1 mps 670 mmHg 44%
    17:00 +30°C° 0 mm 1 mps 670 mmHg 50%
    18:00 +28°C° 0 mm 1 mps 670 mmHg 56%
    19:00 +26°C° 0 mm 1 mps 670 mmHg 62%
    20:00 +26°C° 0 mm 1 mps 670 mmHg 65%
    21:00 +25°C° 0 mm 1 mps 670 mmHg 68%
    22:00 +24°C° 0 mm 1 mps 670 mmHg 72%
    23:00 +23°C° 0,3 mm 1 mps 670 mmHg 77%

    23 Octubre, Lunes

    Tiempo Temperatura Precipitaciones Viento Presión Humedad
    00:00 +23°C° 0,3 mm 1 mps 669 mmHg 82%
    01:00 +22°C° 0,3 mm 1 mps 669 mmHg 86%
    02:00 +22°C° 0,4 mm 1 mps 669 mmHg 89%
    03:00 +21°C° 0,4 mm 1 mps 669 mmHg 91%
    04:00 +19°C° 0,4 mm 0 mps 669 mmHg 93%
    05:00 +20°C° 0,1 mm 0 mps 670 mmHg 89%
    06:00 +21°C° 0,1 mm 0 mps 671 mmHg 85%
    07:00 +23°C° 0,1 mm 0 mps 672 mmHg 81%
    08:00 +27°C° 0 mm 1 mps 672 mmHg 69%
    09:00 +30°C° 0 mm 1 mps 672 mmHg 57%
    10:00 +33°C° 0 mm 1 mps 673 mmHg 45%
    11:00 +34°C° 0,1 mm 1 mps 672 mmHg 44%
    12:00 +34°C° 0,1 mm 1 mps 671 mmHg 42%
    13:00 +35°C° 0,1 mm 1 mps 671 mmHg 40%
    14:00 +34°C° 0 mm 1 mps 670 mmHg 43%
    15:00 +33°C° 0 mm 1 mps 670 mmHg 45%
    16:00 +32°C° 0 mm 1 mps 669 mmHg 48%
    17:00 +30°C° 0,4 mm 1 mps 669 mmHg 57%
    18:00 +27°C° 0,4 mm 1 mps 670 mmHg 67%
    19:00 +25°C° 0,4 mm 1 mps 670 mmHg 76%
    20:00 +25°C° 1,2 mm 1 mps 670 mmHg 79%
    21:00 +24°C° 1,2 mm 1 mps 670 mmHg 83%
    22:00 +24°C° 1,2 mm 1 mps 670 mmHg 86%
    23:00 +23°C° 0,1 mm 1 mps 670 mmHg 88%
    Mostrar más